[[{"header":{"parameterUnit":"m.s-1","parameterCategory":1,"la1":30.2991,"la2":30.254,"lo1":-89.0895,"lo2":-89.0444,"dy":0.0017,"dx":0.0017,"nx":28,"ny":28,"refTime":"2025-07-20T09:00:00:Z","depth":0,"parameterNumber":2,"parameterNumberName":"U-component_of_WINDS"},"data":[0,0,0,0,0,0,0,0,0,0,0,0,0,0,0,0,0,0,0,0,0,0,0,0,0,0,0,0,0,0,0,0,0,0,0,0,0,0,0,0,0,0,0,0,0,0,0,0,0,0,0,0,0,0,0,0,0,0,3.1884,3.1884,0,3.1938,3.1938,3.1939,3.1878,3.1876,3.1873,3.1871,3.1927,3.193,3.1934,0,0,0,0,0,0,0,0,0,0,0,0,0,3.1725,3.1728,3.1883,3.1884,3.1885,3.1938,3.1939,3.1939,3.1878,3.1876,3.1873,3.187,3.1925,3.193,3.1934,0,0,0,0,0,0,0,0,0,0,0,0,0,3.1788,3.1729,3.1883,3.1861,3.1859,3.1938,3.1939,3.1939,3.1879,3.1875,3.1872,3.1869,3.1924,3.1929,3.1935,3.2038,0,0,3.1951,3.1954,0,0,0,0,0,0,0,0,3.1784,3.1794,3.1864,3.1863,3.1861,3.1898,3.1903,3.1972,3.188,3.1872,3.1871,3.1867,3.192,3.1925,3.1943,3.204,3.2043,3.1952,3.1955,3.1957,3.1959,0,0,0,0,0,0,0,3.178,3.1791,3.1905,3.1865,3.1863,3.1847,3.1852,3.1916,3.1914,3.1872,3.1868,3.1875,3.1918,3.1938,3.1944,3.2043,3.1952,3.1956,3.196,3.1962,3.2223,3.2227,0,0,0,0,0,0,3.1778,3.1788,3.1903,3.1907,3.1813,3.1853,3.1859,3.1889,3.1914,3.1914,3.1878,3.1872,3.193,3.1938,3.1946,3.2064,3.1957,3.1962,3.1966,3.222,3.2224,3.2228,0,0,0,0,0,0,3.1775,3.1789,3.1901,3.1846,3.1859,3.1859,3.1894,3.1892,3.1912,3.1918,3.1917,3.1898,3.1928,3.1938,3.2014,3.2065,3.1965,3.197,3.2215,3.2221,3.2226,3.2305,0,0,0,0,0,0,3.1771,3.1789,3.1828,3.1847,3.1862,3.197,3.1898,3.1896,3.1921,3.1914,3.1937,3.1937,3.1926,3.2006,3.202,3.2071,3.1974,3.2211,3.2218,3.2224,3.2297,3.2312,3.2325,0,0,0,0,0,3.1766,3.1849,3.1831,3.1845,3.1912,3.1973,3.1981,3.1966,3.1926,3.1965,3.1968,3.1937,3.2059,3.2015,3.2029,3.2083,3.2207,3.2216,3.2224,3.2291,3.2309,3.2324,0,0,0,0,0,0,3.1837,3.1851,3.1831,3.1924,3.1947,3.1962,3.2011,3.1987,3.2022,3.2014,3.1994,3.2,3.208,3.209,3.2041,3.2182,3.2126,3.2138,3.2172,3.2189,3.2203,3.2197,3.1979,0,0,0,0,0,3.1863,3.1912,3.1922,3.2002,3.2015,3.2012,3.2037,3.2024,3.2048,3.2057,3.2067,3.2091,3.2134,3.2163,3.2203,3.2299,3.2301,3.2343,3.2357,3.2368,3.2377,3.2425,3.2443,3.2255,3.2255,3.2255,0,0,3.1918,3.1932,3.1964,3.2017,3.2034,3.2083,3.202,3.2076,3.2112,3.2066,3.2137,3.2145,3.217,3.2256,3.2294,3.2266,3.243,3.2379,3.2388,3.2391,3.2435,3.2453,3.2469,3.2261,3.226,3.2259,0,0,3.2043,3.206,3.2127,3.2144,3.217,3.2167,3.2183,3.2202,3.2204,3.2276,3.2241,3.2284,3.236,3.2378,3.2397,3.2527,3.2497,3.2541,3.2611,3.2658,3.2672,3.2685,3.2728,3.2743,3.255,3.2551,3.2551,0,3.2107,3.2181,3.2164,3.2221,3.2244,3.2205,3.2271,3.2289,3.2327,3.2343,3.2312,3.2404,3.2418,3.2506,3.2537,3.2555,3.2571,3.2536,3.2672,3.2684,3.2696,3.2736,3.2753,3.2555,3.2555,3.2554,3.2554,0,3.2257,3.2308,3.2359,3.2395,3.2424,3.2486,3.2478,3.2509,3.2493,3.2492,3.2564,3.258,3.2621,3.2642,3.2627,3.2726,3.2708,3.2675,3.2617,3.2719,3.2756,3.2772,3.2562,3.2561,3.2559,3.2558,0,0,3.2427,3.2452,3.2471,3.2485,3.251,3.2549,3.2608,3.2648,3.2673,3.2701,3.2748,3.2812,3.278,3.2802,3.279,3.2831,3.2928,3.2792,3.2792,3.2814,3.3033,3.3055,3.3074,3.291,3.2913,3.2915,3.303,0,3.2549,3.265,3.2636,3.2733,3.2778,3.2741,3.2792,3.2812,3.2813,3.2851,3.2852,3.2896,3.2853,3.2866,3.2905,3.2908,3.2971,3.29,3.295,3.2952,3.2942,3.3094,3.3118,3.3226,3.3045,3.3047,3.3049,0,3.2704,3.2736,3.2837,3.2852,3.287,3.2916,3.2949,3.2987,3.3008,3.3006,3.303,3.3009,3.3066,3.301,3.3086,3.3038,3.3058,3.3063,3.3066,3.3068,3.3005,3.3096,3.326,3.3275,3.3073,3.3071,3.3069,0,3.2813,3.2881,3.2949,3.2963,3.2984,3.3016,3.3026,3.3044,3.3068,3.3097,3.3112,3.3149,3.3168,3.3196,3.3185,3.3146,3.3262,3.3206,3.326,3.326,3.3283,3.3281,3.345,3.3303,3.3303,3.3302,3.3302,0,3.2948,3.3011,3.2998,3.304,3.3107,3.3091,3.3158,3.3164,3.318,3.322,3.3192,3.3231,3.3215,3.3252,3.3244,3.3307,3.3317,3.3315,3.3311,3.3315,3.3315,3.3326,3.3317,3.3307,3.3306,3.3305,3.3304,0,3.308,3.3075,3.3146,3.3158,3.3163,3.3212,3.3222,3.3261,3.3259,3.3311,3.3322,3.332,3.3362,3.3355,3.3402,3.3396,3.3474,3.3463,3.3466,3.3462,3.3514,3.3508,3.3693,3.3714,3.3557,3.3558,3.356,0,3.3165,3.3212,3.3229,3.3254,3.3266,3.3307,3.333,3.3316,3.3341,3.3368,3.3402,3.3442,3.3472,3.3542,3.3544,3.3579,3.3566,3.3629,3.3571,3.3573,3.3563,3.3558,3.3561,3.3639,3.3641,3.3642,3.3643,0,3.3315,3.3309,3.3344,3.3378,3.3406,3.3433,3.3456,3.3478,3.3465,3.3495,3.3537,3.3561,3.3608,3.3647,3.3679,3.3688,3.3663,3.3662,3.3675,3.3678,3.3676,3.3674,3.3493,3.3657,3.3656,3.3655,3.3654,3.3653,3.3423,3.3461,3.3478,3.3518,3.3533,3.3555,3.359,3.3593,3.3628,3.3664,3.3654,3.3702,3.3719,3.376,3.3773,3.3809,3.3785,3.3806,3.3811,3.3815,3.3819,3.3674,3.3815,3.3815,3.3815,3.3814,3.3814,0,3.3568,3.3576,3.3613,3.3645,3.3675,3.365,3.3673,3.37,3.3742,3.3761,3.3791,3.3838,3.3875,3.388,3.3914,3.3942,3.3931,3.3951,3.3947,3.3949,3.384,3.3823,3.3959,3.3959,3.3959,3.3959,3.3959,3.3959,3.3646,3.3708,3.3705,3.3773,3.3782,3.3827,3.3843,3.3862,3.3876,3.393,3.396,3.3963,3.3975,3.401,3.4042,3.4043,3.4055,3.4079,3.4074,3.3972,3.3957,3.3943,3.3927,3.4083,3.4083,3.418,3.4181,3.4181]},{"header":{"parameterUnit":"m.s-1","parameterCategory":1,"la1":30.2991,"la2":30.254,"lo1":-89.0895,"lo2":-89.0444,"dy":0.0017,"dx":0.0017,"nx":28,"ny":28,"refTime":"2025-07-20T09:00:00:Z","depth":0,"parameterNumber":3,"parameterNumberName":"V-component_of_WINDS"},"data":[0,0,0,0,0,0,0,0,0,0,0,0,0,0,0,0,0,0,0,0,0,0,0,0,0,0,0,0,0,0,0,0,0,0,0,0,0,0,0,0,0,0,0,0,0,0,0,0,0,0,0,0,0,0,0,0,0,0,3.054,3.0542,0,3.0666,3.0667,3.0669,3.0652,3.065,3.0648,3.0646,3.0773,3.0778,3.0783,0,0,0,0,0,0,0,0,0,0,0,0,0,3.0283,3.0288,3.054,3.0542,3.0544,3.0666,3.0667,3.0669,3.0652,3.065,3.0647,3.0645,3.0771,3.0777,3.0783,0,0,0,0,0,0,0,0,0,0,0,0,0,3.04,3.029,3.054,3.055,3.0552,3.0665,3.0667,3.0669,3.0653,3.065,3.0646,3.0644,3.0769,3.0776,3.0784,3.0895,0,0,3.0809,3.0812,0,0,0,0,0,0,0,0,3.0394,3.041,3.0547,3.0549,3.0552,3.064,3.0623,3.0745,3.0653,3.0614,3.0646,3.0642,3.0731,3.0742,3.0772,3.0901,3.0907,3.0809,3.0814,3.0817,3.082,0,0,0,0,0,0,0,3.0386,3.0404,3.059,3.0549,3.0552,3.0547,3.056,3.0646,3.0688,3.0618,3.0617,3.0632,3.0732,3.0764,3.0775,3.0908,3.0809,3.0816,3.0821,3.0824,3.1132,3.1135,0,0,0,0,0,0,3.0375,3.0398,3.0586,3.0594,3.0464,3.0554,3.0569,3.0615,3.0687,3.0696,3.0634,3.0631,3.0752,3.0766,3.0779,3.0912,3.0817,3.0825,3.0829,3.1128,3.1133,3.1136,0,0,0,0,0,0,3.037,3.0392,3.0581,3.0496,3.0519,3.0562,3.0614,3.0619,3.0652,3.07,3.0707,3.066,3.075,3.0768,3.0866,3.0916,3.0828,3.0836,3.1124,3.113,3.1134,3.118,0,0,0,0,0,0,3.0363,3.039,3.0434,3.0497,3.0524,3.0667,3.0617,3.0624,3.0666,3.0662,3.0726,3.0734,3.0749,3.0854,3.0874,3.0926,3.0842,3.112,3.1127,3.1133,3.1174,3.1186,3.1196,0,0,0,0,0,3.0354,3.0442,3.0436,3.0459,3.0579,3.067,3.0685,3.0701,3.067,3.0713,3.0744,3.0732,3.0908,3.0864,3.0886,3.0941,3.1117,3.1125,3.1132,3.1169,3.1183,3.1196,0,0,0,0,0,0,3.0384,3.0451,3.0445,3.0557,3.0608,3.0667,3.0722,3.0717,3.0777,3.0771,3.0788,3.0803,3.0901,3.0931,3.0882,3.1051,3.1008,3.102,3.1028,3.1042,3.1053,3.1043,3.0848,0,0,0,0,0,3.0404,3.0473,3.0527,3.062,3.0646,3.068,3.072,3.0728,3.0781,3.0802,3.084,3.0892,3.0958,3.1002,3.1066,3.1178,3.119,3.1226,3.1237,3.1246,3.1256,3.1315,3.1331,3.1161,3.1161,3.1161,0,0,3.0446,3.049,3.0533,3.0627,3.0668,3.0737,3.0698,3.0774,3.0825,3.0814,3.0908,3.0938,3.0996,3.1101,3.1149,3.1129,3.1306,3.1256,3.1262,3.1268,3.1325,3.1341,3.1355,3.1167,3.1166,3.1165,0,0,3.0557,3.0599,3.068,3.0721,3.0782,3.0804,3.0823,3.0883,3.0902,3.0997,3.0989,3.105,3.1165,3.1206,3.1242,3.1366,3.1357,3.1386,3.1444,3.1501,3.1514,3.1526,3.1569,3.1584,3.1397,3.1397,3.1397,0,3.0601,3.0706,3.0722,3.0798,3.0839,3.0832,3.0913,3.0952,3.1031,3.1059,3.1035,3.1177,3.1216,3.1329,3.1359,3.1389,3.1411,3.1379,3.1511,3.1523,3.1535,3.1575,3.1591,3.14,3.14,3.1399,3.1399,0,3.0756,3.0829,3.0887,3.0963,3.1011,3.1089,3.1115,3.1161,3.1164,3.1187,3.1283,3.1329,3.1401,3.1429,3.1433,3.1542,3.1527,3.1507,3.1464,3.1554,3.1592,3.1608,3.1404,3.1403,3.1402,3.1402,0,0,3.0892,3.0974,3.0995,3.1028,3.1095,3.1151,3.1228,3.1298,3.1336,3.1391,3.1454,3.1551,3.1532,3.1573,3.1581,3.1632,3.1724,3.1605,3.1606,3.1624,3.1845,3.1859,3.1877,3.1718,3.1721,3.1724,3.1839,0,3.1008,3.1145,3.116,3.1281,3.1348,3.134,3.1407,3.1454,3.1478,3.1536,3.1562,3.1629,3.16,3.1624,3.1674,3.1703,3.1769,3.1695,3.1776,3.1779,3.1761,3.1897,3.1913,3.2019,3.1854,3.1857,3.1859,0,3.1163,3.1221,3.1349,3.1403,3.1432,3.1492,3.1556,3.1613,3.1665,3.1679,3.1723,3.1724,3.1802,3.1756,3.1862,3.1811,3.1845,3.1864,3.1869,3.1876,3.1824,3.1907,3.2054,3.2069,3.1883,3.1881,3.1879,0,3.1246,3.1357,3.1447,3.1476,3.1543,3.1584,3.1614,3.1663,3.1704,3.176,3.1786,3.1851,3.1886,3.1935,3.1953,3.1918,3.2057,3.2013,3.2069,3.2069,3.2099,3.2096,3.2252,3.2122,3.2122,3.2122,3.2122,0,3.1374,3.1452,3.1485,3.154,3.1627,3.1643,3.1728,3.1755,3.1799,3.1858,3.1856,3.1911,3.1932,3.1991,3.2005,3.2089,3.2106,3.2117,3.212,3.2117,3.2116,3.2139,3.2132,3.2126,3.2125,3.2124,3.2124,0,3.1482,3.1508,3.1605,3.166,3.1675,3.1736,3.1783,3.1835,3.1857,3.1932,3.1951,3.1985,3.2054,3.2076,3.216,3.2169,3.2267,3.2264,3.2249,3.2249,3.2303,3.2297,3.2479,3.2503,3.2359,3.236,3.2361,0,3.1562,3.1622,3.1682,3.1722,3.1753,3.1818,3.1859,3.1876,3.1918,3.1981,3.2026,3.2094,3.2149,3.2259,3.229,3.2353,3.2351,3.241,3.236,3.2354,3.235,3.2346,3.2351,3.2419,3.242,3.2422,3.2423,0,3.17,3.1709,3.1769,3.1832,3.1881,3.1932,3.1982,3.2014,3.2038,3.2086,3.2156,3.2199,3.2283,3.2349,3.2413,3.2442,3.2436,3.2438,3.2454,3.2451,3.244,3.2445,3.2273,3.2434,3.2433,3.2432,3.2431,3.2431,3.1795,3.1847,3.1897,3.1963,3.2002,3.2047,3.2099,3.2127,3.2186,3.2256,3.2262,3.2337,3.2385,3.247,3.2502,3.256,3.2543,3.2567,3.2573,3.2578,3.2581,3.2431,3.2572,3.2571,3.2571,3.2571,3.2571,0,3.1932,3.1963,3.2024,3.2092,3.2143,3.2133,3.2186,3.223,3.2296,3.2342,3.2396,3.2475,3.2539,3.2575,3.2639,3.2678,3.2677,3.2694,3.2691,3.2697,3.2594,3.2573,3.2694,3.2694,3.2694,3.2694,3.2694,3.2694,3.2009,3.2095,3.211,3.2214,3.2245,3.2319,3.235,3.2391,3.2427,3.2516,3.2569,3.2593,3.2634,3.27,3.2758,3.2767,3.279,3.2809,3.2816,3.2718,3.2705,3.2693,3.2673,3.2814,3.2814,3.2915,3.2915,3.2916]}]]